www.pogodaiklimat.ru

Погода и климат >> Архив погоды >> Латвия >> Мадона


АРХИВ ПОГОДЫ в Мадоне

Время (UTC), дата Ветер
(напр.,м/с)
 
Видим.   Явления Облачность Т
(С)
Тd
(С)
f
(%)
Тe
(С)
Тes
(С)
Комфортность P
(гПа)
Po
(гПа)
Тmin
(С)
Tmax
(С)
R
(мм)
R24
(мм)
S
(см)
00 14.06 ЮЗ 2-2
{3}
н/о н/о +18.2 +16.3 89 +19 +19 1016.7 1001.2
03 14.06 ЮЗ 3-4
{4}
н/о н/о +17.5 +16.1 91 +17 +17 1016.8 1001.2
06 14.06 ЮЗ 1-2
{5}
н/о н/о +21.1 +16.6 75 +19 +19 1016.3 1001.1
09 14.06 З 4-6
{6}
н/о н/о +24.6 +16.2 60 +28 +28 душно 1016.7 1001.5
12 14.06 СЗ 4-5
{7}
н/о н/о +23.2 +16.7 67 +28 +28 душно 1018.0 1002.7
15 14.06 СЗ 4-6
{8}
н/о н/о +21.7 +14.3 63 +25 +25 комфорт 1018.4 1003.0
18 14.06 СЗ 2-3
{6}
н/о н/о +19.1 +11.1 60 +21 +21 комфорт 1018.4 1002.9
21 14.06 Ю 1-2
{2}
н/о н/о +13.0 +10.3 84 +13 +13 1020.1 1004.2
00 15.06 штиль 0-1
{2}
н/о н/о +10.9 +9.4 90 +11 +11 1019.7 1003.9
03 15.06 СЗ 2-2
{4}
н/о н/о +12.0 +10.5 91 +11 +11 1019.8 1003.9
06 15.06 С 2-3
{4}
н/о н/о +16.8 +12.3 75 +17 +17 1020.1 1004.4
09 15.06 С 3-4
{7}
н/о н/о +20.9 +11.7 56 +23 +23 комфорт 1019.5 1004.0
12 15.06 З 5-7
{7}
н/о н/о +23.1 +11.1 47 +25 +25 комфорт 1018.7 1003.4
15 15.06 СЗ 3-5
{6}
н/о н/о +23.2 +10.2 44 +25 +25 комфорт 1017.9 1002.6
18 15.06 СЗ 2-3
{5}
н/о н/о +20.7 +9.5 49 +20 +20 1017.3 1002.1
21 15.06 штиль 0
{1}
н/о н/о +11.9 +10.4 91 +11 +11 1017.4 1001.5
00 16.06 штиль 0
{1}
н/о н/о +8.9 +8.1 95 +8 +8 1017.8 1001.7
03 16.06 штиль 0
{1}
н/о н/о +10.0 +9.3 95 +9 +9 1017.2 1001.2
06 16.06 ЮВ 1-3
{3}
н/о н/о +19.3 +12.5 65 +20 +20 1017.0 1001.7
09 16.06 ЮВ 3-3
{4}
н/о н/о +22.4 +12.8 55 +25 +25 комфорт 1015.8 1000.5
12 16.06 Ю 2-2
{3}
н/о н/о +23.3 +12.2 50 +26 +26 жарко 1015.5 1000.2
15 16.06 ЮВ 1-1
{5}
н/о н/о +23.0 +11.0 47 +25 +25 комфорт 1014.8 999.5
18 16.06 штиль 0
{3}
н/о н/о +20.8 +14.1 65 +23 +23 комфорт 1014.7 999.3
21 16.06 штиль 0
{1}
н/о н/о +18.0 +15.4 85 +18 +18 1014.6 999.1
00 17.06 штиль 0
{1}
н/о н/о +17.2 +15.1 87 +17 +17 1014.6 999.2
03 17.06 штиль 0
{5}
н/о н/о +16.7 +14.6 87 +17 +17 1014.5 998.9
06 17.06 С 1-2
{3}
н/о н/о +16.2 +15.2 94 +17 +17 1015.0 999.4
09 17.06 СВ 1-2
{3}
н/о н/о +18.8 +15.8 83 +21 +21 комфорт 1015.0 999.7
15 17.06 С 2-3
{4}
н/о н/о +17.2 +15.8 91 +18 +18 1016.5 1001.1 1
18 17.06 штиль 0
{3}
н/о н/о +18.1 +15.5 85 +18 +18 1016.6 1001.1
21 17.06 З 2-3
{4}
н/о н/о +14.3 +11.7 84 +14 +14 1017.5 1001.7
00 18.06 Ю 1-1
{4}
н/о н/о +9.2 +7.9 92 +10 +10 1018.8 1002.9
03 18.06 З 2-3
{3}
н/о н/о +10.7 +9.9 95 +9 +9 1019.0 1003.0
06 18.06 ЮЗ 3-3
{4}
н/о н/о +18.6 +11.8 65 +19 +19 1019.1 1003.5
09 18.06 З 4-6
{8}
н/о н/о +22.1 +11.7 52 +24 +24 комфорт 1019.1 1003.7
12 18.06 З 3-5
{10}
н/о н/о +23.7 +8.8 39 +24 +24 комфорт 1018.8 1003.5
15 18.06 СЗ 4-6
{7}
н/о н/о +23.4 +11.1 46 +25 +25 комфорт 1018.5 1003.4
18 18.06 СЗ 2-2
{6}
н/о н/о +21.0 +11.5 55 +24 +24 комфорт 1018.2 1002.8
21 18.06 штиль 0
{1}
н/о н/о +12.2 +11.0 92 +12 +12 1019.1 1003.2
00 19.06 штиль 0
{1}
н/о н/о +9.5 +8.7 95 +9 +9 1019.8 1003.7
03 19.06 штиль 0
{1}
н/о н/о +9.9 +9.2 95 +9 +9 1019.8 1003.7
06 19.06 ЮВ 1-2
{2}
н/о н/о +20.9 +13.0 61 +25 +25 комфорт 1018.7 1003.5
09 19.06 Ю 3-4
{4}
н/о н/о +24.8 +12.0 45 +26 +26 жарко 1017.8 1002.6
12 19.06 Ю 1-3
{14}
н/о н/о +25.8 +10.7 39 +27 +27 жарко 1016.9 1001.7
15 19.06 ЮВ 2-3
{6}
н/о н/о +26.5 +10.9 38 +27 +27 жарко 1015.3 1000.2
18 19.06 штиль 0
{2}
н/о н/о +24.1 +11.4 45 +26 +26 жарко 1014.4 999.2
21 19.06 штиль 0 н/о н/о +14.8 +13.3 91 +14 +14 1015.2 999.5
00 20.06 штиль 0 н/о н/о +12.0 +11.2 95 +11 +11 1015.1 999.2
03 20.06 штиль 0 н/о н/о +14.2 +13.3 94 +14 +14 1014.6 998.9
06 20.06 штиль 0
{2}
н/о н/о +21.5 +14.6 65 +25 +25 комфорт 1013.8 998.5
09 20.06 Ю 4-5
{8}
н/о н/о +27.1 +9.8 34 +28 +28 жарко 1013.1 998.0
12 20.06 Ю 3-4
{7}
н/о н/о +29.2 +10.7 32 +30 +30 жарко 1011.9 997.2
15 20.06 ЮВ 2-4
{6}
н/о н/о +27.5 +13.0 41 +29 +29 жарко 1010.6 995.6
18 20.06 штиль 0
{3}
н/о н/о +22.6 +14.1 59 +26 +26 жарко 1011.0 995.8
21 20.06 штиль 0-1
{2}
н/о н/о +18.9 +14.5 76 +20 +20 1011.1 995.7

 

Местоположение метеостанции Мадона (Латвия): широта 56.85 долгота 26.24 высота над уровнем моря 133 м.

В архиве по умолчанию представлена погода в Мадоне за последнюю неделю. Архивные данные за месяц целиком и за предыдущие месяцы, начиная с января 2011 года, Вы можете получить, выбрав интересующий диапазон дат из раскрывающегося списка и нажав кнопку "Ввод!".


*Определитесь, кто Вы:
робот инопланетянин человек

Внимание! Время в таблицах - всемирное. Для получения местного времени необходимо прибавить поправку, которая равна 2 ч.

Смотрите также архив погоды в соседних городах и на ближайших метеорологических станциях:

Погода в Зозени (Латвия) (37 км)
Погода в Зилани (Латвия) (42 км)
Погода в Гулбене (Латвия) (43 км)
Погода в Скриверу (Латвия) (71 км)
Погода в Резекне (Латвия) (72 км)
Погода в Приекули (Латвия) (76 км)
Погода в Алуксне (Латвия) (80 км)
Погода в Валге (Эстония) (104 км)
Погода в Даугавпилсе (Латвия) (111 км)
Погода в Биржае (Литва) (116 км)

Пояснения к столбцам:

Ветер - указаны скорость ветра в м/с - средняя за 10 мин, порывы в срок и между сроками (в фигурных скобках) и направление, откуда дует ветер: С - северный, СВ - северо-восточный, В - восточный, ЮВ - юго-восточный, Ю - южный, ЮЗ - юго-западный, З - западный, СЗ - северо-западный.
Видимость - горизонтальная дальность видимости в метрах или километрах. При видимости от 1 до 10 км при отсутствии осадков обычно наблюдается дымка, при ухудшении видимости до 1 км и менее - туман. В сухую погоду видимость может ухудшаться дымом, пылью или мглою.
Явления - указаны атмосферные явления, наблюдавшиеся в срок или в последний час перед сроком; фигурными скобками обозначены явления, наблюдавшиеся между сроками (за 1-3 часа до срока); квадратными скобками обозначены град или гололедные отложения с указанием их диаметра в мм.
Облачность - указаны через наклонную черту общая и нижняя облачность в баллах и высота нижней границы облаков в метрах; квадратными скобками обозначены формы облаков: Ci - перистые, Cs - перисто-слоистые, Cc - перисто-кучевые, Ac - высококучевые, As - высокослоистые, Sc - слоисто-кучевые, Ns - слоисто-дождевые, Cu - кучевые, Cb - кучево-дождевые. Подробнее классификацию облаков см. в Атласе облаков (PDF).
T - Температура воздуха - температура, измеренная на высоте 2 м над землей.
Td - Температура точки росы - температура, при понижении до которой содержащийся в воздухе водяной пар достигнет насыщения.
f - Относительная влажность воздуха - влажноcть воздуха, измеренная на высоте 2 м над землей.
Te - Эффективная температура - температура, которую ощущает одетый по сезону человек в тени. Характеристика душности погоды. При расчете учитывается влияние влажности воздуха и скорости ветра на теплоощущения человека.
Tes - Эффективная температура на солнце - температура, которую ощущает человек, с поправкой на солнечный нагрев. Характеристика знойности погоды. Зависит от высоты солнца над горизонтом, облачности и скорости ветра. Ночью, в пасмурную погоду, а также при ветре 12 м/с и более поправка равна нулю.
P - Атмосферное давление - приведенное к уровню моря атмосферное давление.
Po - Атмосферное давление - измеренное на уровне метеостанции атмосферное давление.
Tmin - Минимальная температура - минимум температуры воздуха на высоте 2 м над землей.
Tmax - Максимальная температура - максимум температуры воздуха на высоте 2 м над землей.
R - Количество осадков - Количество выпавших осадков за период времени, мм. При наведении курсора мыши на число - период времени, за который выпало указанное количество осадков.
R24 - Количество осадков - Количество выпавших осадков за 24 часа, мм.
S - Снежный покров - Высота снежного покрова, см. При наведении курсора мыши на число - состояние снежного покрова и степень покрытия местности в баллах.